Estación de Casa Rosada

Ultimos registro cada 15 minutos 30
Estación Fecha / Hora Temperatura Humedad Lluvia Velocidad Dirección Radiación Presion
30 Casa Rosada 10-05-2026 07:15 5,4 51 0 0 181 5 1013,9
29 Casa Rosada 10-05-2026 07:00 5,4 52 0 0 177 0 1013,8
28 Casa Rosada 10-05-2026 06:45 5,3 52 0 0,4 181 0 1013,5
27 Casa Rosada 10-05-2026 06:30 5,3 54 0 0,4 184 0 1013,4
26 Casa Rosada 10-05-2026 06:15 5,4 53 0 0,4 177 0 1013,4
25 Casa Rosada 10-05-2026 06:00 5,4 54 0 0 177 0 1013,4
24 Casa Rosada 10-05-2026 05:45 5,9 53 0 0 177 0 1013,3
23 Casa Rosada 10-05-2026 05:30 6,3 52 0 0 181 0 1013,2
22 Casa Rosada 10-05-2026 05:15 6,8 50 0 0 172 0 1013,2
21 Casa Rosada 10-05-2026 05:00 5,1 57 0 0 177 0 1013
20 Casa Rosada 10-05-2026 04:45 5,2 57 0 0,4 172 0 1012,9
19 Casa Rosada 10-05-2026 04:30 5,6 56 0 0 167 0 1012,9
18 Casa Rosada 10-05-2026 04:15 5,7 56 0 0 177 0 1012,9
17 Casa Rosada 10-05-2026 04:00 5,9 55 0 0,4 167 0 1012,9
16 Casa Rosada 10-05-2026 03:45 5,9 55 0 0,4 167 0 1012,9
15 Casa Rosada 10-05-2026 03:30 6,3 54 0 0,9 177 0 1012,8
14 Casa Rosada 10-05-2026 03:15 6,6 52 0 0,9 177 0 1013
13 Casa Rosada 10-05-2026 03:00 7,2 51 0 1,3 207 0 1013,1
12 Casa Rosada 10-05-2026 02:45 8,1 48 0 0,4 187 0 1013,1
11 Casa Rosada 10-05-2026 02:30 8,3 48 0 0,9 157 0 1013,2
10 Casa Rosada 10-05-2026 02:15 8,1 48 0 0,9 167 0 1013,2
9 Casa Rosada 10-05-2026 02:00 8,5 48 0 0,9 159 0 1013,3
8 Casa Rosada 10-05-2026 01:45 7,6 50 0 0,9 167 0 1013,3
7 Casa Rosada 10-05-2026 01:30 8,3 49 0 0,9 167 0 1013,4
6 Casa Rosada 10-05-2026 01:15 8,1 50 0 0 159 0 1013,5
5 Casa Rosada 10-05-2026 01:00 8,4 49 0 0,9 177 0 1013,4
4 Casa Rosada 10-05-2026 00:45 8,6 49 0 0,4 161 0 1013,3
3 Casa Rosada 10-05-2026 00:30 8,2 51 0 0,9 167 0 1013,3
2 Casa Rosada 10-05-2026 00:15 8,3 51 0 0,4 172 0 1013,4
1 Casa Rosada 10-05-2026 00:00 8,4 50 0 0,9 167 0 1013,3